Time,TemperatureF,DewpointF,PressureIn,WindDirection,WindDirectionDegrees,WindSpeedMPH,WindSpeedGustMPH,Humidity,HourlyPrecipIn,Conditions,Clouds,dailyrainin,SolarRadiationWatts/m^2,SoftwareType,DateUTC
2013-04-23 00:12:00,44.3,41.0,30.04,WNW,288,7.0,9.0,89,0.01,,,0.01,0,weatherlink.com 1.10,2013-04-23 05:12:00,
2013-04-23 00:27:00,43.6,41.0,30.02,NW,323,8.0,13.0,89,0.04,,,0.04,0,weatherlink.com 1.10,2013-04-23 05:27:00,
2013-04-23 00:42:00,42.9,40.0,30.04,WNW,287,1.0,12.0,89,0.05,,,0.05,0,weatherlink.com 1.10,2013-04-23 05:42:00,
2013-04-23 00:57:00,42.3,39.0,30.08,WNW,299,2.0,20.0,89,0.06,,,0.06,0,weatherlink.com 1.10,2013-04-23 05:57:00,
2013-04-23 01:12:00,41.6,39.0,30.06,North,11,6.0,14.0,90,0.08,,,0.09,0,weatherlink.com 1.10,2013-04-23 06:12:00,
2013-04-23 01:27:00,40.6,38.0,30.03,NNE,24,3.0,14.0,89,0.07,,,0.11,0,weatherlink.com 1.10,2013-04-23 06:27:00,
2013-04-23 01:42:00,40.1,38.0,30.03,NE,45,2.0,8.0,90,0.07,,,0.12,0,weatherlink.com 1.10,2013-04-23 06:42:00,
2013-04-23 01:58:00,39.9,37.0,30.06,NNE,22,1.0,8.0,90,0.06,,,0.12,0,weatherlink.com 1.10,2013-04-23 06:58:00,
2013-04-23 02:12:00,39.6,37.0,30.06,North,351,4.0,10.0,90,0.02,,,0.12,0,weatherlink.com 1.10,2013-04-23 07:12:00,
2013-04-23 02:27:00,39.2,37.0,30.05,North,9,5.0,10.0,90,0.02,,,0.13,0,weatherlink.com 1.10,2013-04-23 07:27:00,
2013-04-23 02:42:00,38.8,36.0,30.05,NNE,22,4.0,11.0,90,0.02,,,0.14,0,weatherlink.com 1.10,2013-04-23 07:42:00,
2013-04-23 02:57:00,38.3,36.0,30.06,NE,53,4.0,14.0,90,0.03,,,0.15,0,weatherlink.com 1.10,2013-04-23 07:57:00,
2013-04-23 03:13:00,38.1,36.0,30.05,NE,43,3.0,13.0,91,0.04,,,0.16,0,weatherlink.com 1.10,2013-04-23 08:13:00,
2013-04-23 03:28:00,37.6,35.0,30.04,NNW,346,2.0,12.0,90,0.06,,,0.19,0,weatherlink.com 1.10,2013-04-23 08:28:00,
2013-04-23 03:43:00,37.3,35.0,30.04,NNE,28,4.0,10.0,90,0.06,,,0.20,0,weatherlink.com 1.10,2013-04-23 08:43:00,
2013-04-23 03:58:00,37.2,35.0,30.04,NNE,20,3.0,9.0,91,0.08,,,0.23,0,weatherlink.com 1.10,2013-04-23 08:58:00,
2013-04-23 04:13:00,37.3,35.0,30.07,NW,320,3.0,10.0,91,0.09,,,0.26,0,weatherlink.com 1.10,2013-04-23 09:13:00,
2013-04-23 04:28:00,36.8,35.0,30.06,NNW,344,4.0,10.0,91,0.12,,,0.31,0,weatherlink.com 1.10,2013-04-23 09:28:00,
2013-04-23 04:43:00,36.4,34.0,30.06,South,186,4.0,14.0,91,0.14,,,0.34,0,weatherlink.com 1.10,2013-04-23 09:43:00,
2013-04-23 04:58:00,36.3,34.0,30.04,NE,50,3.0,11.0,91,0.13,,,0.36,0,weatherlink.com 1.10,2013-04-23 09:58:00,
2013-04-23 05:13:00,35.9,34.0,30.04,NNE,22,8.0,14.0,91,0.11,,,0.37,0,weatherlink.com 1.10,2013-04-23 10:13:00,
2013-04-23 05:28:00,35.8,34.0,30.05,North,9,5.0,14.0,91,0.08,,,0.39,0,weatherlink.com 1.10,2013-04-23 10:28:00,
2013-04-23 05:43:00,35.6,33.0,30.04,NNE,29,4.0,13.0,90,0.07,,,0.41,0,weatherlink.com 1.10,2013-04-23 10:43:00,
2013-04-23 05:58:00,35.6,33.0,30.05,WNW,299,7.0,8.0,91,0.08,,,0.44,0,weatherlink.com 1.10,2013-04-23 10:58:00,
2013-04-23 06:13:00,35.5,33.0,30.04,NE,48,5.0,9.0,91,0.08,,,0.45,0,weatherlink.com 1.10,2013-04-23 11:13:00,
2013-04-23 06:28:00,35.6,33.0,30.03,NE,49,3.0,12.0,91,0.06,,,0.45,0,weatherlink.com 1.10,2013-04-23 11:28:00,
2013-04-23 06:43:00,35.7,33.0,30.03,North,355,7.0,14.0,91,0.04,,,0.45,0,weatherlink.com 1.10,2013-04-23 11:43:00,
2013-04-23 06:58:00,35.8,33.0,30.05,NNE,26,1.0,9.0,90,0.01,,,0.45,0,weatherlink.com 1.10,2013-04-23 11:58:00,
2013-04-23 07:13:00,35.8,33.0,30.06,NNW,339,4.0,13.0,90,0.00,,,0.45,0,weatherlink.com 1.10,2013-04-23 12:13:00,
2013-04-23 07:28:00,35.8,33.0,30.04,NNE,21,4.0,15.0,89,0.00,,,0.45,14,weatherlink.com 1.10,2013-04-23 12:28:00,
2013-04-23 07:43:00,35.7,33.0,30.05,NNE,19,2.0,16.0,89,0.02,,,0.47,0,weatherlink.com 1.10,2013-04-23 12:43:00,
2013-04-23 07:58:00,35.5,33.0,30.08,North,5,5.0,11.0,90,0.06,,,0.51,0,weatherlink.com 1.10,2013-04-23 12:58:00,
2013-04-23 08:13:00,35.0,32.0,30.08,NNW,331,2.0,13.0,90,0.13,,,0.58,18,weatherlink.com 1.10,2013-04-23 13:13:00,
2013-04-23 08:22:00,34.9,32.5,30.11,NNE,17,3.0,5.0,91,0.15,,,0.61,0,Wunderground v.1.15,2013-04-23 13:22:00,
2013-04-23 08:28:00,34.9,32.5,30.12,NNW,331,3.0,5.0,91,0.15,,,0.62,5,Wunderground v.1.15,2013-04-23 13:28:00,
2013-04-23 08:33:00,34.7,32.3,30.12,NNW,331,3.0,3.0,91,0.06,,,0.62,12,Wunderground v.1.15,2013-04-23 13:33:00,
2013-04-23 08:39:00,34.6,32.2,30.12,NNE,17,3.0,5.0,91,0.04,,,0.62,21,Wunderground v.1.15,2013-04-23 13:39:00,
2013-04-23 08:45:00,34.3,31.9,30.11,West,269,3.0,4.0,91,0.00,,,0.62,32,Wunderground v.1.15,2013-04-23 13:45:00,
2013-04-23 08:51:00,34.1,31.7,30.11,NNE,23,3.0,4.0,91,0.00,,,0.62,42,Wunderground v.1.15,2013-04-23 13:51:00,
2013-04-23 08:57:00,33.9,31.6,30.09,NE,46,3.0,6.0,91,0.00,,,0.62,72,Wunderground v.1.15,2013-04-23 13:57:00,
2013-04-23 09:04:00,33.9,31.8,30.09,NE,46,4.0,5.0,92,0.00,,,0.62,49,Wunderground v.1.15,2013-04-23 14:04:00,
2013-04-23 09:09:00,33.8,31.7,30.09,NNW,346,3.0,4.0,92,0.00,,,0.62,42,Wunderground v.1.15,2013-04-23 14:09:00,
2013-04-23 09:15:00,33.8,31.7,30.08,NNE,32,4.0,5.0,92,0.00,,,0.62,86,Wunderground v.1.15,2013-04-23 14:15:00,
2013-04-23 09:21:00,33.9,31.8,30.10,NNW,348,3.0,4.0,92,0.00,,,0.62,42,Wunderground v.1.15,2013-04-23 14:21:00,
2013-04-23 09:27:00,33.8,31.7,30.08,NNE,27,3.0,5.0,92,0.00,,,0.62,70,Wunderground v.1.15,2013-04-23 14:27:00,
2013-04-23 09:33:00,33.9,31.8,30.08,ESE,113,4.0,5.0,92,0.00,,,0.62,77,Wunderground v.1.15,2013-04-23 14:33:00,
2013-04-23 09:40:00,33.9,31.8,30.09,NNE,31,4.0,4.0,92,0.00,,,0.62,72,Wunderground v.1.15,2013-04-23 14:40:00,
2013-04-23 09:45:00,33.9,32.0,30.10,NE,53,4.0,9.0,92,0.00,,,0.62,54,weatherlink.com 1.10,2013-04-23 14:45:00,
2013-04-23 09:51:00,33.9,31.8,30.10,NNE,31,4.0,6.0,92,0.00,,,0.62,56,Wunderground v.1.15,2013-04-23 14:51:00,
2013-04-23 09:57:00,33.9,31.8,30.10,North,349,4.0,7.0,92,0.00,,,0.62,51,Wunderground v.1.15,2013-04-23 14:57:00,
2013-04-23 10:03:00,33.9,31.6,30.10,North,350,4.0,10.0,91,0.00,,,0.62,65,Wunderground v.1.15,2013-04-23 15:03:00,
2013-04-23 10:09:00,34.0,31.6,30.10,North,5,4.0,5.0,91,0.00,,,0.62,81,Wunderground v.1.15,2013-04-23 15:09:00,
2013-04-23 10:16:00,34.0,31.6,30.09,ENE,74,4.0,7.0,91,0.00,,,0.62,125,Wunderground v.1.15,2013-04-23 15:16:00,
2013-04-23 10:22:00,34.1,31.7,30.09,NE,53,4.0,5.0,91,0.00,,,0.62,97,Wunderground v.1.15,2013-04-23 15:22:00,
2013-04-23 10:27:00,34.2,31.8,30.09,ENE,78,4.0,5.0,91,0.00,,,0.62,86,Wunderground v.1.15,2013-04-23 15:27:00,
2013-04-23 10:33:00,34.3,31.9,30.10,SE,126,4.0,4.0,91,0.00,,,0.62,76,Wunderground v.1.15,2013-04-23 15:33:00,
2013-04-23 10:39:00,34.3,31.9,30.10,WNW,290,3.0,4.0,91,0.00,,,0.62,86,Wunderground v.1.15,2013-04-23 15:39:00,
2013-04-23 10:45:00,34.3,31.9,30.10,NW,315,4.0,7.0,91,0.00,,,0.62,83,Wunderground v.1.15,2013-04-23 15:45:00,
2013-04-23 10:52:00,34.3,31.9,30.10,North,355,3.0,3.0,91,0.00,,,0.62,97,Wunderground v.1.15,2013-04-23 15:52:00,
2013-04-23 10:58:00,34.4,32.0,30.10,NNE,19,4.0,7.0,91,0.00,,,0.62,83,Wunderground v.1.15,2013-04-23 15:58:00,
2013-04-23 11:03:00,34.4,32.0,30.10,NNE,21,4.0,10.0,91,0.00,,,0.62,84,Wunderground v.1.15,2013-04-23 16:03:00,
2013-04-23 11:09:00,34.4,32.0,30.11,North,351,3.0,3.0,91,0.00,,,0.63,63,Wunderground v.1.15,2013-04-23 16:09:00,
2013-04-23 11:15:00,34.4,32.0,30.11,East,86,3.0,8.0,91,0.00,,,0.63,86,Wunderground v.1.15,2013-04-23 16:15:00,
2013-04-23 11:21:00,34.3,31.9,30.11,NW,316,3.0,3.0,91,0.00,,,0.63,51,Wunderground v.1.15,2013-04-23 16:21:00,
2013-04-23 11:27:00,34.3,31.7,30.11,NW,325,3.0,3.0,90,0.00,,,0.63,56,Wunderground v.1.15,2013-04-23 16:27:00,
2013-04-23 11:33:00,34.3,31.7,30.12,NW,325,3.0,5.0,90,0.00,,,0.63,54,Wunderground v.1.15,2013-04-23 16:33:00,
2013-04-23 11:40:00,34.3,31.9,30.11,East,85,3.0,3.0,91,0.00,,,0.63,79,Wunderground v.1.15,2013-04-23 16:40:00,
2013-04-23 11:45:00,34.2,31.6,30.11,WNW,282,4.0,7.0,90,0.00,,,0.64,69,Wunderground v.1.15,2013-04-23 16:45:00,
2013-04-23 11:51:00,34.2,31.8,30.11,NW,321,4.0,8.0,91,0.00,,,0.64,76,Wunderground v.1.15,2013-04-23 16:51:00,
2013-04-23 11:57:00,34.2,31.8,30.11,North,355,4.0,11.0,91,0.00,,,0.64,88,Wunderground v.1.15,2013-04-23 16:57:00,
2013-04-23 12:04:00,34.2,31.8,30.11,NNE,30,4.0,10.0,91,0.00,,,0.64,97,Wunderground v.1.15,2013-04-23 17:04:00,
2013-04-23 12:09:00,34.2,31.8,30.11,NNW,335,4.0,4.0,91,0.00,,,0.64,84,Wunderground v.1.15,2013-04-23 17:09:00,
2013-04-23 12:15:00,34.3,31.9,30.11,NW,306,4.0,5.0,91,0.00,,,0.65,81,Wunderground v.1.15,2013-04-23 17:15:00,
2013-04-23 12:21:00,34.3,31.9,30.11,North,350,4.0,5.0,91,0.00,,,0.65,97,Wunderground v.1.15,2013-04-23 17:21:00,
2013-04-23 12:27:00,34.4,32.0,30.11,South,169,3.0,5.0,91,0.00,,,0.65,98,Wunderground v.1.15,2013-04-23 17:27:00,
2013-04-23 12:33:00,34.3,31.9,30.11,NNE,15,4.0,4.0,91,0.00,,,0.65,86,Wunderground v.1.15,2013-04-23 17:33:00,
2013-04-23 12:40:00,34.3,31.9,30.11,NNE,23,4.0,7.0,91,0.00,,,0.66,105,Wunderground v.1.15,2013-04-23 17:40:00,
2013-04-23 12:45:00,34.1,31.7,30.11,NNW,348,5.0,8.0,91,0.00,,,0.66,86,Wunderground v.1.15,2013-04-23 17:45:00,
2013-04-23 12:52:00,34.2,31.8,30.12,NNW,342,5.0,5.0,91,0.00,,,0.66,83,Wunderground v.1.15,2013-04-23 17:52:00,
2013-04-23 12:57:00,34.3,31.9,30.12,NW,312,4.0,9.0,91,0.00,,,0.66,102,Wunderground v.1.15,2013-04-23 17:57:00,
2013-04-23 13:04:00,34.2,31.8,30.12,NNE,15,5.0,13.0,91,0.00,,,0.66,118,Wunderground v.1.15,2013-04-23 18:04:00,
2013-04-23 13:09:00,34.3,31.9,30.12,ENE,75,5.0,5.0,91,0.00,,,0.66,100,Wunderground v.1.15,2013-04-23 18:09:00,
2013-04-23 13:16:00,34.4,32.0,30.12,West,279,4.0,6.0,91,0.00,,,0.67,102,Wunderground v.1.15,2013-04-23 18:16:00,
2013-04-23 13:22:00,34.4,32.0,30.11,NE,37,4.0,4.0,91,0.00,,,0.67,113,Wunderground v.1.15,2013-04-23 18:22:00,
2013-04-23 13:27:00,34.5,32.1,30.11,NE,37,4.0,7.0,91,0.00,,,0.67,139,Wunderground v.1.15,2013-04-23 18:27:00,
2013-04-23 13:33:00,34.6,32.2,30.11,NW,325,4.0,10.0,91,0.00,,,0.67,105,Wunderground v.1.15,2013-04-23 18:33:00,
2013-04-23 13:39:00,34.5,31.9,30.11,North,360,4.0,5.0,90,0.00,,,0.68,98,Wunderground v.1.15,2013-04-23 18:39:00,
2013-04-23 13:45:00,34.5,32.1,30.11,NNW,341,4.0,5.0,91,0.00,,,0.68,139,Wunderground v.1.15,2013-04-23 18:45:00,
2013-04-23 13:52:00,34.6,32.0,30.11,NNW,342,4.0,5.0,90,0.00,,,0.68,125,Wunderground v.1.15,2013-04-23 18:52:00,
2013-04-23 13:57:00,34.6,32.0,30.12,ENE,66,4.0,5.0,90,0.00,,,0.68,86,Wunderground v.1.15,2013-04-23 18:57:00,
2013-04-23 14:03:00,34.8,32.4,30.12,ENE,70,4.0,13.0,91,0.00,,,0.68,114,Wunderground v.1.15,2013-04-23 19:03:00,
2013-04-23 14:09:00,34.7,32.3,30.12,WNW,285,3.0,3.0,91,0.00,,,0.68,93,Wunderground v.1.15,2013-04-23 19:09:00,
2013-04-23 14:15:00,34.8,32.4,30.12,NNW,348,3.0,6.0,91,0.00,,,0.69,130,Wunderground v.1.15,2013-04-23 19:15:00,
2013-04-23 14:21:00,34.8,32.4,30.12,NNE,13,4.0,4.0,91,0.00,,,0.69,123,Wunderground v.1.15,2013-04-23 19:21:00,
2013-04-23 14:27:00,34.8,32.2,30.12,East,88,4.0,6.0,90,0.00,,,0.69,120,Wunderground v.1.15,2013-04-23 19:27:00,
2013-04-23 14:33:00,34.9,32.3,30.12,North,11,4.0,6.0,90,0.00,,,0.69,105,Wunderground v.1.15,2013-04-23 19:33:00,
2013-04-23 14:39:00,35.1,32.7,30.12,NNW,335,2.0,2.0,91,0.00,,,0.69,132,Wunderground v.1.15,2013-04-23 19:39:00,
2013-04-23 14:46:00,35.3,32.7,30.12,NNE,22,3.0,5.0,90,0.00,,,0.70,144,Wunderground v.1.15,2013-04-23 19:46:00,
2013-04-23 14:51:00,35.3,32.7,30.12,NW,324,3.0,3.0,90,0.00,,,0.70,125,Wunderground v.1.15,2013-04-23 19:51:00,
2013-04-23 14:57:00,35.2,32.6,30.11,North,351,3.0,7.0,90,0.00,,,0.70,148,Wunderground v.1.15,2013-04-23 19:57:00,
2013-04-23 15:03:00,35.2,32.6,30.11,NNE,15,4.0,11.0,90,0.00,,,0.70,137,Wunderground v.1.15,2013-04-23 20:03:00,
2013-04-23 15:09:00,35.2,32.6,30.11,NW,311,4.0,4.0,90,0.00,,,0.70,155,Wunderground v.1.15,2013-04-23 20:09:00,
2013-04-23 15:15:00,35.3,32.7,30.11,NE,37,4.0,5.0,90,0.00,,,0.70,148,Wunderground v.1.15,2013-04-23 20:15:00,
2013-04-23 15:21:00,35.5,32.9,30.11,North,9,3.0,3.0,90,0.00,,,0.71,169,Wunderground v.1.15,2013-04-23 20:21:00,
2013-04-23 15:27:00,35.6,33.0,30.11,SSW,205,3.0,5.0,90,0.00,,,0.71,121,Wunderground v.1.15,2013-04-23 20:27:00,
2013-04-23 15:34:00,35.6,32.7,30.11,NE,46,3.0,9.0,89,0.00,,,0.71,130,Wunderground v.1.15,2013-04-23 20:34:00,
2013-04-23 15:39:00,35.7,33.1,30.11,West,270,3.0,3.0,90,0.00,,,0.71,90,Wunderground v.1.15,2013-04-23 20:39:00,
2013-04-23 15:45:00,35.7,32.8,30.11,NNE,15,3.0,3.0,89,0.00,,,0.71,95,Wunderground v.1.15,2013-04-23 20:45:00,
2013-04-23 15:52:00,35.6,33.0,30.11,North,355,3.0,3.0,90,0.00,,,0.71,113,Wunderground v.1.15,2013-04-23 20:52:00,
2013-04-23 15:57:00,35.7,33.1,30.11,WNW,288,3.0,3.0,90,0.00,,,0.71,93,Wunderground v.1.15,2013-04-23 20:57:00,
2013-04-23 16:03:00,35.7,33.0,30.11,North,355,2.0,11.0,89,0.02,,,0.72,135,weatherlink.com 1.10,2013-04-23 21:03:00,
2013-04-23 16:10:00,36.0,33.1,30.11,NNW,335,3.0,3.0,89,0.00,,,0.72,134,Wunderground v.1.15,2013-04-23 21:10:00,
2013-04-23 16:15:00,36.2,33.3,30.11,NW,316,3.0,7.0,89,0.00,,,0.72,120,Wunderground v.1.15,2013-04-23 21:15:00,
2013-04-23 16:21:00,36.3,33.1,30.11,NW,304,4.0,5.0,88,0.00,,,0.72,111,Wunderground v.1.15,2013-04-23 21:21:00,
2013-04-23 16:28:00,36.4,32.9,30.11,NNW,338,4.0,5.0,87,0.00,,,0.72,90,Wunderground v.1.15,2013-04-23 21:28:00,
2013-04-23 16:33:00,36.6,33.1,30.11,North,360,3.0,4.0,87,0.00,,,0.72,97,Wunderground v.1.15,2013-04-23 21:33:00,
2013-04-23 16:39:00,36.7,33.2,30.12,NNE,13,3.0,3.0,87,0.00,,,0.72,100,Wunderground v.1.15,2013-04-23 21:39:00,
2013-04-23 16:45:00,36.8,33.0,30.12,NW,315,4.0,5.0,86,0.00,,,0.72,100,Wunderground v.1.15,2013-04-23 21:45:00,
2013-04-23 16:51:00,36.9,33.1,30.12,ESE,123,3.0,4.0,86,0.00,,,0.72,98,Wunderground v.1.15,2013-04-23 21:51:00,
2013-04-23 16:58:00,36.9,32.8,30.12,ENE,60,4.0,4.0,85,0.00,,,0.72,95,Wunderground v.1.15,2013-04-23 21:58:00,
2013-04-23 17:03:00,37.0,33.0,30.11,WNW,284,5.0,11.0,85,0.00,,,0.72,127,weatherlink.com 1.10,2013-04-23 22:03:00,
2013-04-23 17:18:00,37.1,33.0,30.11,West,269,9.0,14.0,85,0.00,,,0.72,97,weatherlink.com 1.10,2013-04-23 22:18:00,
2013-04-23 17:33:00,37.1,33.0,30.11,North,9,1.0,15.0,85,0.00,,,0.72,88,weatherlink.com 1.10,2013-04-23 22:33:00,
2013-04-23 17:48:00,37.4,33.0,30.11,North,5,6.0,8.0,85,0.00,,,0.72,105,weatherlink.com 1.10,2013-04-23 22:48:00,
2013-04-23 18:03:00,37.7,33.0,30.12,NNE,17,5.0,11.0,84,0.00,,,0.72,93,weatherlink.com 1.10,2013-04-23 23:03:00,
2013-04-23 18:19:00,37.9,34.0,30.12,WNW,296,2.0,7.0,84,0.00,,,0.72,74,weatherlink.com 1.10,2013-04-23 23:19:00,
2013-04-23 18:34:00,38.1,33.0,30.12,NW,309,2.0,8.0,83,0.00,,,0.72,63,weatherlink.com 1.10,2013-04-23 23:34:00,
2013-04-23 18:49:00,38.2,34.0,30.12,NW,317,5.0,9.0,83,0.00,,,0.72,49,weatherlink.com 1.10,2013-04-23 23:49:00,
2013-04-23 19:04:00,38.3,33.0,30.12,WNW,298,2.0,10.0,82,0.00,,,0.72,33,weatherlink.com 1.10,2013-04-24 00:04:00,
2013-04-23 19:19:00,38.4,33.0,30.13,NNW,336,2.0,5.0,82,0.00,,,0.72,16,weatherlink.com 1.10,2013-04-24 00:19:00,
2013-04-23 19:34:00,38.4,33.0,30.12,WNW,284,1.0,5.0,82,0.00,,,0.72,9,weatherlink.com 1.10,2013-04-24 00:34:00,
2013-04-23 19:49:00,38.5,33.0,30.12,WSW,240,2.0,7.0,81,0.00,,,0.72,0,weatherlink.com 1.10,2013-04-24 00:49:00,
2013-04-23 20:04:00,38.6,33.0,30.13,WNW,283,4.0,9.0,81,0.00,,,0.72,0,weatherlink.com 1.10,2013-04-24 01:04:00,
2013-04-23 20:19:00,38.6,33.0,30.13,WNW,290,3.0,8.0,80,0.00,,,0.72,0,weatherlink.com 1.10,2013-04-24 01:19:00,
2013-04-23 20:34:00,38.6,33.0,30.14,NW,311,1.0,5.0,80,0.00,,,0.72,0,weatherlink.com 1.10,2013-04-24 01:34:00,
2013-04-23 20:49:00,38.6,33.0,30.15,West,273,1.0,7.0,81,0.00,,,0.72,0,weatherlink.com 1.10,2013-04-24 01:49:00,
2013-04-23 21:04:00,38.6,33.0,30.16,WNW,291,1.0,6.0,81,0.00,,,0.72,0,weatherlink.com 1.10,2013-04-24 02:04:00,
2013-04-23 21:19:00,38.7,33.0,30.16,WNW,290,1.0,7.0,81,0.00,,,0.72,0,weatherlink.com 1.10,2013-04-24 02:19:00,
2013-04-23 21:49:00,38.9,33.0,30.17,NNW,328,3.0,8.0,78,0.00,,,0.72,0,weatherlink.com 1.10,2013-04-24 02:49:00,
2013-04-23 22:04:00,38.8,32.0,30.20,SSW,208,4.0,15.0,76,0.00,,,0.72,0,weatherlink.com 1.10,2013-04-24 03:04:00,
2013-04-23 22:19:00,37.4,32.0,30.20,ENE,63,3.0,14.0,82,0.00,,,0.72,0,weatherlink.com 1.10,2013-04-24 03:19:00,
2013-04-23 22:34:00,36.5,32.0,30.21,NW,309,7.0,10.0,85,0.00,,,0.72,0,weatherlink.com 1.10,2013-04-24 03:34:00,
2013-04-23 22:49:00,36.1,33.0,30.21,NW,307,3.0,11.0,87,0.01,,,0.73,0,weatherlink.com 1.10,2013-04-24 03:49:00,
2013-04-23 23:04:00,35.7,33.0,30.21,NNE,12,2.0,10.0,88,0.01,,,0.73,0,weatherlink.com 1.10,2013-04-24 04:04:00,
2013-04-23 23:19:00,35.2,32.0,30.21,NW,306,3.0,7.0,89,0.01,,,0.73,0,weatherlink.com 1.10,2013-04-24 04:19:00,
2013-04-23 23:34:00,34.9,32.0,30.21,NW,314,0.0,6.0,90,0.02,,,0.74,0,weatherlink.com 1.10,2013-04-24 04:34:00,
2013-04-23 23:49:00,34.8,32.0,30.22,West,259,1.0,6.0,90,0.01,,,0.74,0,weatherlink.com 1.10,2013-04-24 04:49:00,